[[{"header":{"parameterUnit":"m.s-1","parameterCategory":1,"la1":30.2991,"la2":30.254,"lo1":-89.0895,"lo2":-89.0444,"dy":0.0017,"dx":0.0017,"nx":28,"ny":28,"refTime":"2024-04-17T21:00:00:Z","depth":0,"parameterNumber":2,"parameterNumberName":"U-component_of_WINDS"},"data":[0,0,0,0,0,0,0,0,0,0,0,0,0,0,0,0,0,0,0,0,0,0,0,0,0,0,0,0,0,0,0,0,0,0,0,0,0,0,0,0,0,0,0,0,0,0,0,0,0,0,0,0,0,0,0,0,0,0,-2.0591,-2.0591,0,-2.0566,-2.0566,-2.0565,-2.0519,-2.0518,-2.0517,-2.0516,-2.0491,-2.0491,-2.0491,0,0,0,0,0,0,0,0,0,0,0,0,0,-2.0599,-2.0599,-2.0591,-2.0591,-2.059,-2.0566,-2.0566,-2.0565,-2.0519,-2.0518,-2.0517,-2.0516,-2.0491,-2.0491,-2.0491,0,0,0,0,0,0,0,0,0,0,0,0,0,-2.0587,-2.06,-2.0591,-2.0564,-2.0562,-2.0566,-2.0566,-2.0565,-2.0519,-2.0518,-2.0516,-2.0515,-2.049,-2.0491,-2.0491,-2.052,0,0,-2.0492,-2.0492,0,0,0,0,0,0,0,0,-2.0588,-2.0587,-2.0569,-2.0566,-2.0563,-2.0544,-2.0559,-2.055,-2.0519,-2.0535,-2.0516,-2.0514,-2.051,-2.0508,-2.0506,-2.0518,-2.0517,-2.0492,-2.0492,-2.0492,-2.0492,0,0,0,0,0,0,0,-2.0589,-2.0588,-2.0581,-2.0568,-2.0565,-2.0554,-2.0551,-2.0557,-2.053,-2.0534,-2.053,-2.0528,-2.0508,-2.0506,-2.0505,-2.0517,-2.0492,-2.0492,-2.0492,-2.0492,-2.0551,-2.0553,0,0,0,0,0,0,-2.0594,-2.0589,-2.0582,-2.058,-2.0573,-2.0555,-2.0551,-2.0552,-2.053,-2.0526,-2.0529,-2.0526,-2.0507,-2.0505,-2.0504,-2.0536,-2.0492,-2.0492,-2.0492,-2.055,-2.0552,-2.0553,0,0,0,0,0,0,-2.0594,-2.0593,-2.0583,-2.0584,-2.0581,-2.0556,-2.0557,-2.0552,-2.055,-2.0527,-2.0522,-2.0533,-2.0505,-2.0504,-2.0516,-2.0535,-2.0492,-2.0493,-2.0548,-2.0551,-2.0553,-2.0601,0,0,0,0,0,0,-2.0594,-2.0594,-2.0604,-2.0584,-2.0582,-2.0595,-2.0558,-2.0552,-2.0551,-2.0546,-2.0528,-2.0524,-2.0504,-2.0516,-2.0516,-2.0534,-2.0493,-2.0547,-2.0549,-2.0552,-2.0597,-2.0604,-2.061,0,0,0,0,0,-2.0595,-2.0619,-2.0605,-2.0604,-2.0594,-2.0596,-2.0595,-2.0571,-2.0552,-2.0563,-2.0548,-2.0525,-2.0533,-2.0518,-2.0518,-2.0536,-2.0545,-2.0549,-2.0552,-2.0594,-2.0603,-2.061,0,0,0,0,0,0,-2.0642,-2.0616,-2.06,-2.0618,-2.061,-2.0588,-2.0601,-2.0581,-2.0578,-2.0574,-2.0545,-2.0541,-2.0557,-2.0548,-2.0531,-2.0563,-2.0536,-2.0539,-2.0568,-2.0576,-2.0582,-2.0584,-2.0493,0,0,0,0,0,-2.0654,-2.0658,-2.0635,-2.0653,-2.065,-2.0626,-2.0626,-2.0609,-2.0599,-2.0595,-2.0581,-2.0573,-2.0573,-2.0574,-2.0573,-2.0596,-2.0592,-2.0609,-2.0615,-2.0621,-2.0624,-2.0635,-2.0642,-2.0564,-2.0564,-2.0564,0,0,-2.068,-2.0666,-2.067,-2.0662,-2.0654,-2.0659,-2.0624,-2.063,-2.0633,-2.0596,-2.0607,-2.0596,-2.0585,-2.0603,-2.061,-2.0595,-2.0645,-2.0625,-2.0629,-2.0629,-2.0639,-2.0647,-2.0653,-2.0566,-2.0566,-2.0565,0,0,-2.0729,-2.0719,-2.0733,-2.0725,-2.0713,-2.0697,-2.0701,-2.0682,-2.0674,-2.0684,-2.0656,-2.066,-2.0662,-2.0655,-2.0651,-2.0699,-2.0678,-2.07,-2.0733,-2.0744,-2.075,-2.0756,-2.0772,-2.0779,-2.0703,-2.0703,-2.0703,0,-2.0762,-2.0768,-2.0743,-2.0751,-2.0749,-2.0716,-2.073,-2.0724,-2.0712,-2.0711,-2.0695,-2.0697,-2.0687,-2.0702,-2.0714,-2.0713,-2.0716,-2.0701,-2.0752,-2.0757,-2.0761,-2.0777,-2.0783,-2.0706,-2.0705,-2.0705,-2.0705,0,-2.081,-2.0814,-2.0827,-2.0817,-2.0816,-2.0827,-2.0804,-2.0806,-2.0789,-2.0775,-2.0786,-2.0773,-2.0769,-2.0772,-2.0755,-2.0785,-2.0777,-2.0757,-2.0729,-2.0772,-2.0786,-2.0792,-2.071,-2.0709,-2.0708,-2.0707,0,0,-2.0887,-2.0862,-2.0867,-2.0862,-2.0846,-2.085,-2.086,-2.0856,-2.0858,-2.0852,-2.0859,-2.0862,-2.0843,-2.084,-2.0822,-2.0833,-2.0871,-2.0811,-2.0811,-2.0822,-2.0903,-2.0917,-2.0925,-2.0857,-2.0858,-2.0859,-2.0904,0,-2.0932,-2.0947,-2.0925,-2.0945,-2.0949,-2.0919,-2.0927,-2.0919,-2.0907,-2.0908,-2.0894,-2.0897,-2.0872,-2.087,-2.0879,-2.0864,-2.0886,-2.0861,-2.0864,-2.0864,-2.0867,-2.0932,-2.0947,-2.099,-2.0909,-2.091,-2.0911,0,-2.0986,-2.0982,-2.1003,-2.0986,-2.0987,-2.0995,-2.099,-2.0992,-2.0982,-2.0972,-2.0969,-2.0948,-2.0957,-2.0931,-2.0942,-2.0926,-2.0926,-2.0919,-2.092,-2.0919,-2.0889,-2.0932,-2.1003,-2.1009,-2.0919,-2.0918,-2.0918,0,-2.104,-2.104,-2.1052,-2.1049,-2.1029,-2.1036,-2.1028,-2.1017,-2.1016,-2.1012,-2.1011,-2.1008,-2.1007,-2.1005,-2.0984,-2.0967,-2.0999,-2.097,-2.0991,-2.0991,-2.0998,-2.0998,-2.1069,-2.0999,-2.0999,-2.0999,-2.0999,0,-2.1092,-2.1106,-2.1076,-2.1083,-2.1098,-2.1073,-2.1088,-2.1078,-2.1068,-2.1073,-2.1047,-2.1052,-2.1025,-2.1027,-2.1011,-2.1024,-2.1023,-2.1015,-2.1011,-2.1017,-2.1018,-2.1016,-2.1013,-2.1001,-2.1,-2.1,-2.1,0,-2.1154,-2.1134,-2.1146,-2.1127,-2.1123,-2.1134,-2.1118,-2.1125,-2.1111,-2.1118,-2.1118,-2.1096,-2.1098,-2.1077,-2.1075,-2.1064,-2.1083,-2.1074,-2.1087,-2.1084,-2.1105,-2.1103,-2.1177,-2.1186,-2.1111,-2.1112,-2.1112,0,-2.1188,-2.1198,-2.1181,-2.1182,-2.1176,-2.1179,-2.1178,-2.1154,-2.1154,-2.1144,-2.1152,-2.1151,-2.1149,-2.1154,-2.1138,-2.1136,-2.1126,-2.1152,-2.1125,-2.1132,-2.1126,-2.1125,-2.1126,-2.1157,-2.1158,-2.1159,-2.116,0,-2.1252,-2.1241,-2.1241,-2.1238,-2.1237,-2.1234,-2.1228,-2.1231,-2.1205,-2.1207,-2.1208,-2.1207,-2.1205,-2.1204,-2.12,-2.1192,-2.1172,-2.1169,-2.1173,-2.1179,-2.1186,-2.1182,-2.1101,-2.1167,-2.1166,-2.1166,-2.1165,-2.1165,-2.13,-2.1308,-2.1296,-2.1297,-2.129,-2.1286,-2.1291,-2.1278,-2.1279,-2.1275,-2.1261,-2.1265,-2.1255,-2.1247,-2.1241,-2.1244,-2.1231,-2.1237,-2.1239,-2.1241,-2.1245,-2.1187,-2.1243,-2.1243,-2.1242,-2.1242,-2.1242,0,-2.1361,-2.1353,-2.1354,-2.1347,-2.1348,-2.1329,-2.1322,-2.1324,-2.1327,-2.132,-2.1319,-2.1321,-2.1321,-2.1305,-2.1303,-2.1308,-2.1299,-2.1309,-2.1308,-2.1306,-2.1256,-2.1252,-2.1316,-2.1316,-2.1316,-2.1316,-2.1316,-2.1316,-2.1393,-2.1405,-2.1394,-2.1402,-2.1393,-2.1397,-2.1394,-2.139,-2.1384,-2.1387,-2.1387,-2.1377,-2.1366,-2.1363,-2.1362,-2.1358,-2.1358,-2.1371,-2.1363,-2.1317,-2.131,-2.1303,-2.1299,-2.1371,-2.1371,-2.1412,-2.1413,-2.1413]},{"header":{"parameterUnit":"m.s-1","parameterCategory":1,"la1":30.2991,"la2":30.254,"lo1":-89.0895,"lo2":-89.0444,"dy":0.0017,"dx":0.0017,"nx":28,"ny":28,"refTime":"2024-04-17T21:00:00:Z","depth":0,"parameterNumber":3,"parameterNumberName":"V-component_of_WINDS"},"data":[0,0,0,0,0,0,0,0,0,0,0,0,0,0,0,0,0,0,0,0,0,0,0,0,0,0,0,0,0,0,0,0,0,0,0,0,0,0,0,0,0,0,0,0,0,0,0,0,0,0,0,0,0,0,0,0,0,0,1.6761,1.676,0,1.674,1.674,1.674,1.6761,1.6762,1.6763,1.6763,1.6738,1.6736,1.6735,0,0,0,0,0,0,0,0,0,0,0,0,0,1.6815,1.6814,1.6761,1.676,1.676,1.674,1.674,1.674,1.6761,1.6762,1.6763,1.6764,1.6738,1.6737,1.6735,0,0,0,0,0,0,0,0,0,0,0,0,0,1.6793,1.6814,1.6761,1.6768,1.6769,1.674,1.674,1.674,1.6761,1.6762,1.6763,1.6764,1.6739,1.6737,1.6735,1.6696,0,0,1.6728,1.6727,0,0,0,0,0,0,0,0,1.6794,1.6791,1.6768,1.6768,1.6768,1.6755,1.675,1.6725,1.676,1.6764,1.6763,1.6765,1.6742,1.674,1.6733,1.6695,1.6694,1.6728,1.6726,1.6725,1.6725,0,0,0,0,0,0,0,1.6795,1.6792,1.6752,1.6767,1.6768,1.6772,1.677,1.6745,1.6746,1.6763,1.6765,1.6762,1.6742,1.6735,1.6732,1.6693,1.6728,1.6726,1.6724,1.6724,1.6623,1.6622,0,0,0,0,0,0,1.6797,1.6793,1.6753,1.6752,1.6785,1.677,1.6768,1.6758,1.6746,1.6746,1.6761,1.6763,1.6738,1.6735,1.6732,1.6686,1.6725,1.6723,1.6722,1.6625,1.6623,1.6622,0,0,0,0,0,0,1.6798,1.6793,1.6754,1.6773,1.6768,1.6768,1.6756,1.6757,1.6749,1.6745,1.6745,1.6754,1.6739,1.6735,1.6705,1.6686,1.6722,1.672,1.6626,1.6624,1.6622,1.6595,0,0,0,0,0,0,1.6799,1.6793,1.6779,1.6772,1.6767,1.6729,1.6755,1.6755,1.6746,1.6748,1.6738,1.6737,1.674,1.6708,1.6703,1.6683,1.6719,1.6628,1.6625,1.6623,1.6597,1.6592,1.6587,0,0,0,0,0,1.6801,1.6771,1.6778,1.6773,1.675,1.6727,1.6724,1.6729,1.6744,1.673,1.6727,1.6737,1.6689,1.6705,1.6699,1.6679,1.6629,1.6626,1.6623,1.6599,1.6593,1.6587,0,0,0,0,0,0,1.6773,1.677,1.6778,1.6745,1.6737,1.6731,1.6713,1.6722,1.6708,1.6711,1.6716,1.6714,1.6682,1.6678,1.6696,1.6641,1.6661,1.6657,1.6645,1.6639,1.6634,1.6636,1.6717,0,0,0,0,0,1.6764,1.6747,1.6745,1.6716,1.6711,1.6713,1.6703,1.6708,1.6699,1.6695,1.669,1.668,1.6662,1.6651,1.6634,1.6597,1.6595,1.658,1.6575,1.6571,1.6567,1.6548,1.6541,1.6612,1.6612,1.6612,0,0,1.6742,1.6739,1.6728,1.671,1.6704,1.6686,1.6709,1.6689,1.6675,1.6691,1.6664,1.666,1.6649,1.6616,1.6601,1.661,1.6547,1.6567,1.6564,1.6562,1.6544,1.6537,1.6531,1.661,1.661,1.661,0,0,1.6695,1.6691,1.6667,1.6661,1.6653,1.6654,1.6649,1.6642,1.6641,1.6614,1.6626,1.6609,1.6579,1.6571,1.6562,1.6515,1.6523,1.6509,1.6482,1.6464,1.6458,1.6453,1.6436,1.643,1.6505,1.6505,1.6505,0,1.667,1.6645,1.6653,1.6632,1.6624,1.664,1.6615,1.6609,1.6595,1.6588,1.66,1.6564,1.6557,1.6523,1.6511,1.6504,1.6497,1.651,1.6459,1.6454,1.6449,1.6433,1.6427,1.6503,1.6503,1.6504,1.6504,0,1.6614,1.6596,1.6578,1.6566,1.6556,1.6533,1.6537,1.6526,1.6532,1.6532,1.6504,1.6498,1.6481,1.6473,1.6478,1.6439,1.6446,1.6458,1.6478,1.6441,1.6426,1.6419,1.6501,1.6501,1.6502,1.6502,0,0,1.6547,1.6542,1.6535,1.653,1.6523,1.6509,1.6487,1.6472,1.6462,1.6452,1.6434,1.6409,1.6421,1.6412,1.6416,1.64,1.6363,1.6414,1.6414,1.6404,1.632,1.6311,1.6304,1.6369,1.6368,1.6367,1.6321,0,1.65,1.6464,1.6471,1.6435,1.6419,1.6435,1.6416,1.6409,1.6409,1.6394,1.6394,1.6376,1.6393,1.6388,1.6372,1.637,1.6346,1.6374,1.6351,1.635,1.6353,1.6296,1.6285,1.6242,1.6315,1.6314,1.6313,0,1.6439,1.643,1.6393,1.639,1.6383,1.6366,1.6354,1.634,1.6332,1.6334,1.6325,1.6333,1.631,1.6332,1.6301,1.632,1.6312,1.6309,1.6308,1.6305,1.6329,1.6291,1.6229,1.6222,1.6304,1.6305,1.6306,0,1.6394,1.6372,1.6347,1.6343,1.6338,1.6326,1.6323,1.6317,1.6308,1.6297,1.6292,1.6278,1.627,1.6258,1.6262,1.6277,1.6231,1.6252,1.623,1.623,1.6219,1.6219,1.6154,1.6214,1.6214,1.6214,1.6214,0,1.6341,1.6317,1.6327,1.6312,1.6286,1.6295,1.6269,1.6268,1.6263,1.6248,1.626,1.6245,1.6251,1.6236,1.6239,1.6213,1.6209,1.6209,1.621,1.6208,1.6208,1.6201,1.6204,1.6212,1.6213,1.6213,1.6213,0,1.6285,1.6291,1.6265,1.6264,1.6263,1.6245,1.6243,1.6229,1.623,1.621,1.6206,1.6208,1.6191,1.6195,1.6175,1.6177,1.6145,1.615,1.6148,1.6149,1.6127,1.6129,1.6054,1.6045,1.6112,1.6111,1.6111,0,1.625,1.6233,1.6231,1.6223,1.622,1.6205,1.6197,1.6205,1.6196,1.6187,1.6174,1.6158,1.6146,1.6119,1.6118,1.6103,1.6108,1.6083,1.6105,1.6104,1.6107,1.6108,1.6106,1.6078,1.6077,1.6076,1.6076,0,1.6188,1.6192,1.6181,1.617,1.6161,1.6153,1.6145,1.6137,1.6145,1.6134,1.6118,1.6109,1.6091,1.6075,1.6062,1.6058,1.6068,1.6069,1.6063,1.606,1.606,1.606,1.6136,1.607,1.6071,1.6071,1.6071,1.6072,1.6142,1.6128,1.6124,1.6111,1.6108,1.6101,1.6088,1.6089,1.6076,1.6063,1.6069,1.6051,1.6044,1.6028,1.6023,1.6009,1.6018,1.6009,1.6007,1.6004,1.6002,1.6063,1.6006,1.6006,1.6006,1.6007,1.6007,0,1.608,1.6079,1.6067,1.6058,1.6048,1.606,1.6054,1.6044,1.6028,1.6022,1.6011,1.5993,1.5979,1.5978,1.5964,1.5952,1.5957,1.5948,1.5949,1.5948,1.5994,1.6001,1.5945,1.5945,1.5945,1.5945,1.5945,1.5945,1.6046,1.6024,1.6028,1.6003,1.6002,1.5986,1.5981,1.5975,1.5971,1.5951,1.594,1.594,1.5936,1.5922,1.591,1.591,1.5904,1.5894,1.5895,1.5939,1.5945,1.595,1.5957,1.5893,1.5893,1.585,1.585,1.585]}]]